• In Hungary
  • List of Countries
  • For 7 days
  • Water Temperature
  • Satellite Maps
  • Weather Map
  • News
  • Weather Widgets
  • user-avatar
    Login

    Hourly Weather Cardiff

    Today, 23 January, Tuesday

    Time Temperature Precipitation Wind Pressure Humidity
    00:00 +6°C° 0 mm 5 mps 760 mmHg 94%
    01:00 +6°C° 0 mm 5 mps 760 mmHg 94%
    02:00 +7°C° 0 mm 6 mps 759 mmHg 94%
    03:00 +8°C° 0 mm 6 mps 759 mmHg 95%
    04:00 +8°C° 0.7 mm 6 mps 758 mmHg 95%
    05:00 +9°C° 0.7 mm 7 mps 758 mmHg 95%
    06:00 +10°C° 0.7 mm 7 mps 757 mmHg 95%
    07:00 +10°C° 0.4 mm 7 mps 757 mmHg 95%
    08:00 +11°C° 0.4 mm 7 mps 757 mmHg 94%
    09:00 +11°C° 0.4 mm 7 mps 757 mmHg 93%
    10:00 +11°C° 0.1 mm 7 mps 757 mmHg 92%
    11:00 +11°C° 0.1 mm 8 mps 757 mmHg 90%
    12:00 +11°C° 0.1 mm 8 mps 757 mmHg 89%
    13:00 +11°C° 0.1 mm 8 mps 757 mmHg 90%
    14:00 +11°C° 0.1 mm 8 mps 757 mmHg 90%
    15:00 +11°C° 0.1 mm 8 mps 757 mmHg 90%
    16:00 +11°C° 0.1 mm 8 mps 757 mmHg 90%
    17:00 +11°C° 0.1 mm 8 mps 757 mmHg 90%
    18:00 +10°C° 0.1 mm 8 mps 757 mmHg 90%
    19:00 +10°C° 0.1 mm 8 mps 757 mmHg 90%
    20:00 +10°C° 0.1 mm 8 mps 757 mmHg 90%
    21:00 +10°C° 0.1 mm 7 mps 757 mmHg 90%
    22:00 +10°C° 0 mm 8 mps 757 mmHg 90%
    23:00 +10°C° 0 mm 8 mps 756 mmHg 90%

    Tomorrow, 24 January, Wednesday

    Time Temperature Precipitation Wind Pressure Humidity
    00:00 +10°C° 0 mm 9 mps 756 mmHg 90%
    01:00 +10°C° 0.1 mm 9 mps 755 mmHg 90%
    02:00 +11°C° 0.1 mm 10 mps 754 mmHg 89%
    03:00 +11°C° 0.1 mm 11 mps 753 mmHg 88%
    04:00 +10°C° 0.2 mm 12 mps 752 mmHg 88%
    05:00 +10°C° 0.2 mm 12 mps 750 mmHg 87%
    06:00 +10°C° 0.2 mm 13 mps 749 mmHg 86%
    07:00 +10°C° 3 mm 13 mps 749 mmHg 87%
    08:00 +10°C° 3 mm 12 mps 749 mmHg 88%
    09:00 +10°C° 3 mm 12 mps 749 mmHg 89%
    10:00 +8°C° 2.2 mm 11 mps 749 mmHg 87%
    11:00 +7°C° 2.2 mm 10 mps 750 mmHg 85%
    12:00 +6°C° 2.2 mm 8 mps 750 mmHg 83%
    13:00 +6°C° 0.2 mm 8 mps 750 mmHg 80%
    14:00 +6°C° 0.2 mm 8 mps 750 mmHg 78%
    15:00 +7°C° 0.2 mm 8 mps 750 mmHg 75%
    16:00 +6°C° 0.1 mm 8 mps 751 mmHg 77%
    17:00 +5°C° 0.1 mm 7 mps 751 mmHg 79%
    18:00 +5°C° 0.1 mm 7 mps 751 mmHg 81%
    19:00 +5°C° 0.1 mm 7 mps 751 mmHg 81%
    20:00 +4°C° 0.1 mm 7 mps 752 mmHg 82%
    21:00 +4°C° 0.1 mm 7 mps 752 mmHg 82%
    22:00 +4°C° 0.1 mm 7 mps 752 mmHg 82%
    23:00 +4°C° 0.1 mm 7 mps 752 mmHg 81%

    Day after tomorrow, 25 January, Thursday

    Time Temperature Precipitation Wind Pressure Humidity
    00:00 +4°C° 0.1 mm 7 mps 752 mmHg 80%
    01:00 +4°C° 0.1 mm 7 mps 752 mmHg 80%
    02:00 +4°C° 0.1 mm 7 mps 752 mmHg 81%
    03:00 +3°C° 0.1 mm 7 mps 752 mmHg 81%
    04:00 +3°C° 0.2 mm 7 mps 751 mmHg 81%
    05:00 +3°C° 0.2 mm 7 mps 751 mmHg 81%
    06:00 +3°C° 0.2 mm 7 mps 751 mmHg 81%
    07:00 +3°C° 0.2 mm 7 mps 751 mmHg 81%
    08:00 +3°C° 0.2 mm 7 mps 751 mmHg 81%
    09:00 +3°C° 0.2 mm 7 mps 751 mmHg 81%
    10:00 +4°C° 0.2 mm 7 mps 751 mmHg 78%
    11:00 +5°C° 0.2 mm 7 mps 751 mmHg 75%
    12:00 +6°C° 0.2 mm 8 mps 751 mmHg 72%
    13:00 +6°C° 0.2 mm 7 mps 751 mmHg 73%
    14:00 +6°C° 0.2 mm 7 mps 751 mmHg 73%
    15:00 +6°C° 0.2 mm 7 mps 751 mmHg 74%
    16:00 +5°C° 0 mm 7 mps 752 mmHg 76%
    17:00 +4°C° 0 mm 7 mps 752 mmHg 78%
    18:00 +3°C° 0 mm 6 mps 752 mmHg 81%
    19:00 +3°C° 0.2 mm 6 mps 753 mmHg 83%
    20:00 +3°C° 0.2 mm 5 mps 753 mmHg 84%
    21:00 +3°C° 0.2 mm 5 mps 754 mmHg 86%
    22:00 +3°C° 0.1 mm 5 mps 755 mmHg 86%
    23:00 +3°C° 0.1 mm 5 mps 755 mmHg 86%

    26 January, Friday

    Time Temperature Precipitation Wind Pressure Humidity
    00:00 +2°C° 0.1 mm 5 mps 756 mmHg 86%
    01:00 +2°C° 0 mm 5 mps 756 mmHg 86%
    02:00 +2°C° 0 mm 5 mps 756 mmHg 85%
    03:00 +2°C° 0 mm 5 mps 756 mmHg 85%
    04:00 +2°C° 0 mm 5 mps 757 mmHg 87%
    05:00 +3°C° 0 mm 4 mps 758 mmHg 88%
    06:00 +2°C° 0 mm 3 mps 758 mmHg 89%
    07:00 +3°C° 0 mm 4 mps 759 mmHg 89%
    08:00 +3°C° 0 mm 4 mps 760 mmHg 89%
    09:00 +2°C° 0 mm 5 mps 761 mmHg 88%
    10:00 +3°C° 0 mm 5 mps 762 mmHg 84%
    11:00 +6°C° 0 mm 5 mps 763 mmHg 80%
    12:00 +7°C° 0 mm 6 mps 764 mmHg 75%
    13:00 +7°C° 0 mm 5 mps 764 mmHg 75%
    14:00 +6°C° 0 mm 5 mps 765 mmHg 75%
    15:00 +6°C° 0 mm 5 mps 765 mmHg 74%
    16:00 +5°C° 0 mm 4 mps 766 mmHg 77%
    17:00 +4°C° 0 mm 3 mps 766 mmHg 80%
    18:00 +3°C° 0 mm 3 mps 767 mmHg 83%
    19:00 +3°C° 0 mm 3 mps 768 mmHg 84%
    20:00 +4°C° 0 mm 2 mps 768 mmHg 85%
    21:00 +3°C° 0 mm 2 mps 769 mmHg 86%
    22:00 +3°C° 0 mm 2 mps 769 mmHg 86%
    23:00 +4°C° 0 mm 2 mps 769 mmHg 85%

    27 January, Saturday

    Time Temperature Precipitation Wind Pressure Humidity
    00:00 +4°C° 0 mm 2 mps 769 mmHg 85%
    01:00 +3°C° 0.1 mm 3 mps 768 mmHg 86%
    02:00 +4°C° 0.1 mm 4 mps 768 mmHg 88%
    03:00 +4°C° 0.1 mm 4 mps 768 mmHg 90%
    04:00 +5°C° 0.1 mm 5 mps 767 mmHg 91%
    05:00 +6°C° 0.1 mm 5 mps 767 mmHg 93%
    06:00 +6°C° 0.1 mm 5 mps 766 mmHg 94%
    07:00 +7°C° 0.5 mm 5 mps 766 mmHg 95%
    08:00 +8°C° 0.5 mm 6 mps 766 mmHg 95%
    09:00 +8°C° 0.5 mm 6 mps 766 mmHg 96%
    10:00 +9°C° 0.7 mm 6 mps 766 mmHg 95%
    11:00 +9°C° 0.7 mm 7 mps 766 mmHg 94%
    12:00 +10°C° 0.7 mm 7 mps 766 mmHg 94%
    13:00 +10°C° 0.1 mm 7 mps 766 mmHg 93%
    14:00 +10°C° 0.1 mm 7 mps 765 mmHg 91%
    15:00 +11°C° 0.1 mm 7 mps 765 mmHg 90%
    16:00 +10°C° 0 mm 7 mps 765 mmHg 91%
    17:00 +10°C° 0 mm 7 mps 766 mmHg 92%
    18:00 +9°C° 0 mm 7 mps 766 mmHg 94%
    19:00 +10°C° 0 mm 6 mps 767 mmHg 94%
    20:00 +10°C° 0 mm 6 mps 767 mmHg 94%
    21:00 +10°C° 0 mm 6 mps 768 mmHg 94%
    22:00 +10°C° 0 mm 6 mps 768 mmHg 94%
    23:00 +10°C° 0 mm 6 mps 768 mmHg 94%

    28 January, Sunday

    Time Temperature Precipitation Wind Pressure Humidity
    00:00 +10°C° 0 mm 6 mps 768 mmHg 95%
    01:00 +10°C° 0 mm 6 mps 769 mmHg 95%
    02:00 +10°C° 0 mm 6 mps 769 mmHg 95%
    03:00 +10°C° 0 mm 5 mps 769 mmHg 95%
    04:00 +10°C° 0 mm 5 mps 769 mmHg 95%
    05:00 +10°C° 0 mm 5 mps 770 mmHg 95%
    06:00 +10°C° 0 mm 5 mps 770 mmHg 95%
    07:00 +10°C° 0 mm 5 mps 770 mmHg 95%
    08:00 +10°C° 0 mm 5 mps 771 mmHg 95%
    09:00 +10°C° 0 mm 5 mps 771 mmHg 94%
    10:00 +10°C° 0 mm 5 mps 771 mmHg 92%
    11:00 +12°C° 0 mm 5 mps 772 mmHg 90%
    12:00 +12°C° 0 mm 5 mps 772 mmHg 88%
    13:00 +12°C° 0 mm 5 mps 772 mmHg 89%
    14:00 +12°C° 0 mm 5 mps 771 mmHg 89%
    15:00 +11°C° 0 mm 6 mps 771 mmHg 90%
    16:00 +10°C° 0 mm 5 mps 771 mmHg 91%
    17:00 +10°C° 0 mm 5 mps 772 mmHg 92%
    18:00 +10°C° 0 mm 5 mps 772 mmHg 92%
    19:00 +10°C° 0 mm 5 mps 772 mmHg 92%
    20:00 +9°C° 0 mm 5 mps 772 mmHg 92%
    21:00 +9°C° 0 mm 5 mps 772 mmHg 92%
    22:00 +9°C° 0 mm 5 mps 772 mmHg 92%
    23:00 +9°C° 0 mm 5 mps 772 mmHg 92%
    Show more